Theta_e
327 327 325 324 316 312 309 307 311 311 312 312 309 300 296 296 296 296 295 294 294 293 292 292 291 290 290 289 288 287 286 285 284 285 284 283 282 282 281 281 281 281 281
320 318 323 317 310 308 309 312 312 312 311 307 302 298 296 296 296 295 294 294 293 292 292 291 291 290 289 288 287 286 285 285 284 283 284 283 282 281 280 281 281 281 281
320 314 313 312 311 312 312 311 311 311 305 302 299 297 296 295 295 294 294 293 292 291 291 291 290 289 288 287 286 286 285 284 283 282 281 282 281 280 280 280 281 281 281
312 312 311 311 311 310 310 311 310 305 302 301 298 297 296 295 294 293 293 292 291 291 290 290 289 289 288 287 286 285 285 284 283 282 281 281 280 279 279 279 280 280 281
311 311 311 310 310 311 310 309 306 302 301 299 299 298 296 295 294 293 292 291 290 290 289 289 289 288 287 287 286 285 284 283 282 282 281 280 279 279 278 278 278 278 280
310 310 310 310 310 310 309 306 304 301 301 301 300 298 296 295 294 293 291 290 290 289 289 288 287 287 286 285 284 284 283 283 281 280 280 279 279 277 277 277 276 276 277
310 310 310 310 310 309 307 305 303 301 301 301 299 298 297 295 293 293 292 291 290 289 288 287 287 287 285 284 283 283 282 281 280 280 279 278 277 276 275 275 275 274 274
310 310 310 310 309 308 307 306 304 302 300 299 299 299 297 296 294 293 292 291 290 289 288 287 286 285 285 284 283 282 282 281 279 279 279 277 276 276 274 274 273 273 273
310 310 310 310 309 307 307 305 305 303 301 300 299 298 297 297 294 293 292 291 291 291 289 287 286 285 284 283 282 282 282 280 279 278 278 277 276 275 274 273 273 273 273
310 309 309 308 307 307 307 306 304 301 300 299 298 298 296 296 294 293 292 291 291 291 290 288 286 285 284 283 282 281 281 281 279 278 276 276 275 275 274 273 273 272 272
309 309 308 308 308 306 305 304 301 299 299 299 298 297 296 296 295 293 292 291 291 290 290 290 289 286 284 283 281 280 280 279 278 277 276 275 275 275 274 273 272 272 271
308 307 307 307 306 304 302 300 300 299 298 299 298 298 297 295 294 293 292 292 291 290 290 290 290 287 284 282 280 279 279 278 278 277 275 274 274 274 273 272 272 271 270
303 302 302 302 301 301 301 300 300 299 299 298 296 295 295 294 294 294 293 292 291 290 289 288 287 286 283 281 280 279 279 278 277 276 274 274 274 273 273 272 271 270 269
297 297 297 296 296 296 296 296 296 295 295 295 294 294 294 293 293 293 292 291 290 289 288 287 285 284 282 281 280 279 279 278 277 275 274 273 273 273 272 271 271 270 269
294 294 294 294 293 293 293 293 293 292 292 292 291 291 290 291 290 290 290 290 289 289 288 287 285 282 280 280 280 279 278 277 277 276 273 272 273 272 271 270 269 269 268
293 292 292 292 292 292 292 292 291 291 291 291 290 290 290 290 289 289 288 288 286 285 283 285 284 282 280 280 279 279 279 277 277 275 272 272 272 271 271 269 268 268 267
292 292 292 291 291 291 291 290 290 291 291 291 290 290 289 288 287 286 286 286 284 283 282 282 281 281 281 280 279 279 278 277 276 274 272 271 271 272 270 268 267 267 266
290 290 290 290 290 290 290 290 290 290 289 290 290 289 289 287 286 285 285 284 284 284 283 283 283 282 281 281 280 278 277 276 275 273 271 271 272 270 268 267 266 266 265
290 290 290 290 290 290 290 289 289 288 288 288 288 289 288 287 286 285 284 282 282 282 282 283 283 282 281 281 280 279 277 276 274 272 272 272 271 269 268 266 266 265 264
290 290 290 290 289 288 287 287 286 286 286 286 286 285 284 283 284 284 284 282 281 281 281 280 280 281 281 281 280 278 277 275 274 272 271 271 270 269 267 266 265 265 265
288 288 287 286 286 285 284 284 283 283 282 281 281 280 280 279 280 279 279 278 278 278 279 278 278 278 278 279 279 278 276 275 274 272 271 271 269 267 266 265 265 265 265
284 284 284 283 282 282 281 280 280 279 279 279 279 278 278 277 277 277 277 276 276 275 275 275 275 275 276 276 277 276 275 274 273 272 271 270 268 266 266 266 265 265 264
281 280 280 280 279 279 278 278 278 277 277 276 276 276 275 274 274 274 274 274 274 274 274 274 274 273 274 274 273 273 273 273 271 271 269 268 266 266 266 265 265 264 264
278 278 277 277 277 276 276 275 275 274 274 273 273 273 273 272 272 272 271 271 271 272 272 272 272 272 272 273 272 272 271 271 270 269 268 266 266 266 265 265 265 264 264
276 276 275 275 274 274 273 273 273 272 272 271 270 270 270 269 270 270 270 270 270 271 271 271 271 271 271 271 271 270 270 270 268 268 266 266 266 266 265 265 265 264 264
274 274 273 273 272 272 271 271 270 270 269 269 268 268 268 268 268 268 268 269 269 269 269 270 270 269 269 269 269 268 268 267 267 266 266 266 266 266 266 265 265 265 265
Wind_Speed
40 40 35 29 26 27 23 20 14 9 11 15 12 10 10 8 7 7 8 10 11 12 13 13 12 12 13 13 13 13 15 17 20 23 24 25 28 29 27 26 27 28 31
28 28 27 28 28 22 22 17 12 10 12 12 11 10 10 10 9 10 11 12 13 14 15 15 15 15 15 14 14 15 16 19 21 24 25 27 28 28 30 28 27 28 32
23 23 23 20 23 13 10 9 11 12 12 11 10 10 12 11 12 14 14 15 16 16 18 19 19 18 18 17 17 17 18 19 21 24 27 28 29 30 30 30 31 29 32
20 19 23 20 12 9 9 9 11 12 11 11 11 12 13 14 15 17 17 18 18 20 21 22 22 21 21 20 20 21 21 20 20 23 26 28 30 30 32 36 35 34 34
25 25 18 14 11 9 11 11 12 12 13 12 12 14 15 17 18 19 20 21 22 23 24 25 24 25 25 24 24 23 23 21 21 24 26 27 29 31 32 34 37 40 38
20 16 16 13 7 10 11 11 13 13 13 13 14 16 19 20 21 22 23 24 25 27 28 28 28 29 28 27 26 25 25 23 23 25 25 27 28 30 31 33 36 39 44
17 16 13 10 11 11 13 13 14 14 15 17 17 19 21 22 23 25 27 27 28 29 30 30 31 32 31 28 27 27 27 25 25 26 26 26 28 28 30 33 33 35 38
13 11 13 15 13 13 13 14 16 18 19 20 20 22 23 23 25 27 29 30 30 30 31 31 33 33 32 30 30 30 28 28 26 26 27 25 26 28 29 31 33 36 37
10 13 13 13 12 14 17 17 19 21 22 24 22 25 27 25 27 28 30 33 33 34 33 33 34 34 31 31 34 33 31 30 27 27 27 26 26 27 29 31 30 35 40
12 11 12 14 16 18 19 21 22 22 23 25 26 27 28 28 27 29 31 35 37 37 36 35 34 35 34 34 36 35 35 31 28 27 25 24 25 26 28 29 30 31 33
12 14 14 16 18 19 21 22 21 23 25 26 28 27 28 29 29 31 34 37 38 39 39 38 36 34 36 36 36 36 35 29 29 27 24 24 25 26 26 27 27 28 30
12 12 14 16 18 19 20 20 22 24 26 27 29 31 30 30 32 33 35 37 37 42 43 41 39 35 34 34 31 29 30 32 32 28 25 24 24 25 26 26 26 25 25
8 9 11 13 15 18 20 21 24 26 29 30 32 35 35 33 35 36 38 38 39 41 44 43 39 38 35 32 29 29 33 36 34 28 26 25 24 25 26 25 25 26 24
11 13 15 17 19 21 23 25 28 28 31 33 35 37 39 39 38 37 37 38 38 39 40 38 40 38 37 34 33 30 36 36 32 28 26 25 24 24 25 25 25 27 28
14 16 17 19 21 22 24 25 28 28 30 34 34 35 38 38 36 36 37 37 37 35 35 37 37 39 40 39 38 34 37 38 34 29 27 24 24 24 24 24 24 26 26
17 19 20 22 22 23 25 24 23 26 25 27 30 32 34 36 36 35 36 36 33 31 32 37 35 37 41 42 42 40 37 36 33 29 26 24 23 23 23 22 23 23 23
19 19 18 19 19 21 22 25 27 24 28 27 28 29 32 36 35 33 33 32 34 35 35 38 42 39 39 38 40 40 39 35 30 27 25 22 21 22 22 21 21 20 19
17 19 19 20 22 24 26 28 30 33 35 33 31 35 36 38 38 37 36 33 35 32 42 45 45 42 42 39 35 33 35 34 29 25 22 21 22 19 19 18 18 17 16
19 20 22 24 26 29 31 33 35 37 39 42 43 40 39 42 43 42 38 36 37 37 36 44 46 46 42 40 38 32 30 30 25 21 22 22 18 17 17 15 14 13 12
22 25 27 29 31 33 35 38 40 42 44 46 48 47 47 46 46 46 44 39 37 36 35 39 41 43 44 41 37 37 32 28 24 22 21 19 16 14 13 12 10 8 8
29 31 33 35 37 38 40 41 42 44 45 46 46 44 42 41 43 42 41 41 37 35 34 33 35 36 36 40 40 35 31 25 23 21 19 16 12 10 10 7 6 5 6
34 35 37 39 40 41 41 41 42 43 43 45 46 45 42 40 40 39 38 37 36 33 31 31 31 32 31 31 37 36 29 24 22 20 17 13 9 8 6 4 4 3 3
36 37 38 39 40 41 41 41 41 41 42 42 42 42 42 41 40 39 38 36 35 34 30 28 28 27 26 25 26 23 20 18 16 15 12 8 7 6 4 2 1 1 2
38 39 39 39 39 39 39 40 40 40 40 41 41 40 39 38 37 37 36 34 33 31 28 25 22 19 17 18 20 18 16 16 14 12 9 8 8 6 3 2 2 2 2
37 38 38 39 40 40 41 41 40 40 39 39 39 38 38 37 36 35 34 32 30 27 22 17 15 15 16 17 16 15 15 15 13 12 12 13 10 7 5 3 4 3 3
36 37 38 39 40 40 41 41 41 40 40 39 38 37 36 36 35 34 32 29 25 19 14 11 10 10 10 11 12 14 14 14 13 14 15 13 9 7 6 5 6 6 5
Wind_Direction
212 212 200 197 183 180 175 156 173 204 253 273 253 232 231 239 262 281 288 296 297 298 295 294 293 297 298 299 305 313 316 315 314 318 324 326 326 328 328 331 333 334 332
195 187 189 185 175 160 152 167 213 249 250 232 230 232 243 255 268 277 282 287 293 293 288 288 289 289 289 292 298 304 306 309 310 316 323 326 326 325 325 328 330 333 332
190 178 166 160 139 147 192 206 247 238 228 235 234 245 253 263 273 274 278 283 286 286 285 284 282 284 286 289 292 296 299 301 307 312 319 324 323 323 323 325 329 333 334
158 146 136 148 160 185 209 228 234 236 240 240 242 253 263 268 270 274 280 282 281 280 279 278 280 282 281 284 286 290 292 294 301 308 314 318 319 322 324 326 328 330 336
149 145 145 164 188 214 230 229 232 241 246 248 258 268 273 272 274 277 279 279 278 278 279 281 281 279 278 281 282 283 285 291 299 304 309 314 317 320 324 326 327 329 334
152 152 173 193 238 245 233 229 250 255 261 269 272 272 271 275 277 279 280 280 279 281 282 282 280 280 281 281 281 283 285 292 295 298 307 310 315 317 320 324 327 330 332
172 185 202 250 262 252 234 250 263 269 273 274 272 275 278 279 279 279 281 282 282 282 281 281 281 280 279 278 278 278 280 287 290 294 302 308 309 313 318 322 326 325 326
199 226 255 264 257 242 255 273 280 277 276 276 278 280 280 281 279 280 282 282 282 284 284 284 280 279 277 277 275 273 275 277 280 286 295 300 307 314 317 320 323 321 320
264 281 280 266 250 256 269 281 285 280 283 284 282 279 279 279 278 280 283 285 287 288 287 284 282 280 280 277 272 271 272 271 275 282 292 299 305 309 312 316 319 321 324
280 281 264 257 262 271 280 283 281 281 279 277 279 280 280 282 281 285 286 285 286 289 289 286 283 282 281 276 270 270 268 269 270 275 282 289 297 305 310 315 318 321 323
276 280 276 273 272 278 282 285 280 278 280 281 282 284 284 286 286 285 285 286 289 290 287 286 285 283 280 276 270 266 269 270 267 271 276 283 294 302 308 311 313 317 320
293 290 285 282 281 280 281 284 287 286 286 287 287 285 283 283 286 287 287 287 288 287 286 287 286 285 278 272 263 259 259 263 269 269 274 283 293 300 303 307 309 313 319
318 309 302 301 296 293 291 289 287 284 283 284 286 286 288 289 289 288 288 288 287 284 285 286 286 282 278 271 255 250 252 257 267 265 273 281 288 295 300 306 310 314 318
316 308 300 292 287 285 284 285 285 288 292 293 295 297 300 299 298 298 294 290 287 284 284 282 283 280 277 270 263 246 249 255 264 270 274 280 288 295 302 308 312 315 317
307 302 301 302 303 302 302 303 303 304 302 302 303 302 303 303 305 303 301 296 292 287 282 276 272 268 264 260 263 258 254 257 262 268 272 278 285 293 302 306 311 315 318
312 311 310 310 309 310 309 308 305 306 306 307 310 312 313 310 311 310 307 303 296 292 287 284 276 267 263 262 261 262 259 257 259 265 268 273 283 295 300 304 309 313 317
323 321 321 322 323 323 320 318 319 316 318 317 315 314 311 312 311 307 302 294 286 286 274 274 276 273 271 268 264 262 260 259 259 261 264 271 282 291 297 303 306 310 314
333 330 329 328 325 323 323 321 319 316 314 312 312 313 312 310 308 307 305 298 289 277 271 274 275 275 274 273 270 264 256 252 253 255 259 268 279 289 296 301 304 306 310
332 328 326 326 325 322 318 316 314 313 313 313 312 310 310 308 307 307 306 300 295 289 276 273 270 274 276 275 269 261 249 246 249 251 258 267 279 286 293 297 300 304 313
329 328 326 324 320 318 318 317 317 316 316 316 315 316 316 313 311 310 308 304 298 292 286 272 277 275 271 272 268 254 241 239 246 251 258 267 275 283 289 292 292 293 304
327 326 325 325 324 323 323 321 320 319 318 317 317 318 319 316 314 311 309 306 302 298 292 284 277 273 274 268 262 243 232 238 245 246 254 262 264 274 279 284 288 299 311
332 331 329 328 327 326 326 325 324 323 322 321 319 318 318 315 313 311 308 305 303 300 292 284 278 276 272 264 253 231 228 237 238 240 243 238 241 249 246 246 260 284 311
336 335 334 333 332 330 329 328 327 325 323 322 322 322 323 323 321 319 315 311 306 301 296 285 280 279 279 267 234 229 237 242 239 234 223 215 218 213 206 218 235 304 339
340 338 337 335 334 333 332 332 332 331 331 329 328 326 325 323 321 319 318 315 310 304 296 289 281 272 263 236 226 231 233 228 222 207 192 185 177 165 160 160 129 100 33
343 342 342 341 340 339 337 336 335 333 332 331 329 328 327 326 324 322 320 317 313 308 304 294 276 259 245 235 230 223 217 210 195 181 172 166 160 150 138 128 111 92 63
346 345 344 343 341 340 338 337 335 334 333 332 330 329 327 326 325 323 321 317 312 307 302 286 262 246 232 220 213 205 194 182 172 166 164 160 156 147 143 129 115 104 87